Location: Wingville
(42.9917°N, 90.4915°W)
Time: 20:51:36
(UTC+00:00)

LO-87 - Pass Details

Date: 30 June 2022
Orbit: 451 x 466 km, 97.4° (Epoch: 13 August)

Event Time Altitude Azimuth Distance (km) Brightness Sun altitude
Exits shadow 06:41:39 12° 288° (WNW) 1,491 ? -23.3°
Drops below altitude 10° 06:42:20 10° 299° (WNW) 1,613 ? -23.3°
Sets 06:45:25 0° 328° (NNW) 2,543 ? -23.2°
